Regional Weather Roundup
Issued by NWS Cleveland, OH

Home | Current Version | Previous Version | Graphics & Text | Print | Product List | Glossary On
Versions: 1 2 3 4 5 6 7 8 9 10 11 12 13 14 15 16 17 18 19 20 21 22 23 24 25 26 27 28 29 30 31 32 33 34 35 36 37 38 39 40 41 42 43 44 45 46 47 48 49 50
000
ASUS41 KCLE 311210
RWRCLE
OHIO REGIONAL WEATHER ROUNDUP
NATIONAL WEATHER SERVICE CLEVELAND, OH
800 AM EDT MON AUG 31 2015

NOTE: "FAIR" INDICATES FEW OR NO CLOUDS BELOW 12,000 FEET WITH NO
SIGNIFICANT WEATHER AND/OR OBSTRUCTIONS TO VISIBILITY.

OHZ001>008-015>018-024>027-034-035-043-044-311300-
   NORTHWEST OHIO

CITY           SKY/WX    TMP DP  RH WIND       PRES   REMARKS
DEFIANCE       FOG       66  64  93 CALM      30.09R VSB<1/4
FINDLAY        SUNNY     66  64  93 SW5       30.09R FOG
TOLEDO EXPRESS MOSUNNY   65  64  97 CALM      30.08R FOG
TOLEDO EXEC    SUNNY     67  64  90 CALM      30.09R FOG
LIMA           SUNNY     67  65  93 S3        30.11R FOG
$$

OHZ009>014-019>023-028>033-038-089-311300-
   NORTHEAST OHIO

CITY           SKY/WX    TMP DP  RH WIND       PRES   REMARKS
CLE-HOPKINS    PTSUNNY   69  64  84 SW9       30.11R
CLE-LAKEFRONT  SUNNY     73  65  75 SW7       30.07R
CUY CO. ARPT   MOSUNNY   72  68  88 W7        30.09R
LORAIN-ELYRIA  SUNNY     66  64  93 SW3       30.10R FOG
ASHTABULA      SUNNY     67  66  97 CALM      30.10R
AKRON-CANTON   MOSUNNY   68  65  90 S5        30.11R FOG
WOOSTER        SUNNY     66  65  96 CALM      30.12R FOG
MANSFIELD      SUNNY     67  66  97 SW5       30.12R
YOUNGSTOWN     MOSUNNY   67  65  93 S3        30.11R
$$

OHZ042-051>053-060>062-070>072-077>081-311300-
  SOUTHWEST OHIO

CITY           SKY/WX    TMP DP  RH WIND       PRES   REMARKS
CINC-COVINGTON PTCLDY    67  65  93 SW3       30.13R
CINC-LUNKEN    PTCLDY    66  66 100 CALM      30.12R
HAMILTON       CLEAR     65  64  97 CALM      30.13R
DAYTON         PTCLDY    68  67  96 SW6       30.13R
WRIGHT-PAT AFB SUNNY     66  66  97 S2        30.12R
DAYTON GENERAL CLEAR     67  65  93 CALM      30.12R FOG
WILMINGTON     SUNNY     66  64  93 SW5       30.13R FOG
$$

OHZ036-037-039>041-045>050-054>059-063>069-073>076-082>088-311300-
  CENTRAL AND SOUTHEAST OHIO

CITY           SKY/WX    TMP DP  RH WIND       PRES   REMARKS
COLUMBUS       MOSUNNY   68  66  93 CALM      30.11R
OSU AIRPORT    SUNNY     68  66  93 S3        30.12R
BOLTON FIELD   SUNNY     64  64 100 S5        30.12R FOG
RICKENBACK AFB SUNNY     65  64  96 CALM      30.11R
NEWARK         MOSUNNY   65  63  93 CALM      30.11R FOG
MARION         SUNNY     65  64  97 CALM      30.11R FOG
LANCASTER      SUNNY     65  63  93 CALM      30.12R FOG
ZANESVILLE     SUNNY     65  62  90 CALM      30.11S FOG
NEW PHILLY     SUNNY     64  63  96 CALM      30.12R FOG
$$



USA.gov is the U.S. government's official web portal to all federal, state and local government web resources and services.